Cheraw, SC

6:11 PM EDT on March 23, 2017 (GMT -0400)
Cheraw

Weather History for KCQW - September, 2012

Change the Weather History Date:

Friday, September 7, 2012

  Actual Average (KFLO) Record (KFLO)
Temperature  
Mean Temperature 78 °F -  
Max Temperature 87 °F 86 °F 99 °F (1983)
Min Temperature 69 °F 67 °F 55 °F (1984)
Cooling Degree Days 13    
Growing Degree Days 28 (Base 50)    
Moisture  
Dew Point 72 °F    
Average Humidity 89    
Maximum Humidity 100    
Minimum Humidity 58    
Precipitation  
Precipitation 0.00 in - - ()
Sea Level Pressure  
Sea Level Pressure 29.93 in    
Wind  
Wind Speed - (North)    
Max Wind Speed -    
Max Gust Speed -    
Visibility 7 miles    
Events Fog    
Averages and records for this station are not official NWS values.
T = Trace of Precipitation, MM = Missing Value Source: NWS Daily Summary

Daily Weather History Graph

Daily Weather History Graph

Search for Another Location

Airport or City:

Trip Planner

Search our weather history database for the weather conditions in past years. The results will help you decide how hot, cold, wet, or windy it might be!

Date:

Astronomy

Sep. 07, 2012 Rise Set
Actual Time 6:57 AM EDT 7:37 PM EDT
Civil Twilight 6:31 AM EDT 8:02 PM EDT
Nautical Twilight 6:01 AM EDT 8:32 PM EDT
Astronomical Twilight 5:31 AM EDT 9:03 PM EDT
Moon 11:49 PM EDT (9/7) 1:30 PM EDT (9/7)
Length of Visible Light 13h 30m
Length of Day
12h 39m
Waning Gibbous, 58% of the Moon is Illuminated
Sep 7
Waning Gibbous
Sep 8
Last Quarter
Sep 15
New
Sep 22
First Quarter
Sep 29
Full

Hourly Weather History & Observations

Time (EDT) Temp. Heat Index Dew Point Humidity Pressure Visibility Wind Dir Wind Speed Gust Speed Precip Events Conditions
12:15 AM 71.6 °F - 71.6 °F 100% 29.95 in 8.0 mi North - - N/A   Overcast
12:35 AM 71.6 °F - 71.6 °F 100% 29.95 in 10.0 mi North - - N/A   Overcast
12:55 AM 71.6 °F - 71.6 °F 100% 29.95 in 10.0 mi North - - N/A   Overcast
1:15 AM 71.6 °F - 71.6 °F 100% 29.95 in 9.0 mi North - - N/A   Mostly Cloudy
1:35 AM 71.6 °F - 71.6 °F 100% 29.94 in 10.0 mi North - - N/A   Partly Cloudy
2:15 AM 71.6 °F - 71.6 °F 100% 29.93 in 10.0 mi North - - N/A   Clear
2:35 AM 71.6 °F - 71.6 °F 100% 29.93 in 6.0 mi North - - N/A   Mostly Cloudy
2:55 AM 71.6 °F - 71.6 °F 100% 29.92 in 6.0 mi North - - N/A   Overcast
3:15 AM 71.6 °F - 71.6 °F 100% 29.92 in 5.0 mi North - - N/A   Mostly Cloudy
3:35 AM 71.6 °F - 71.6 °F 100% 29.92 in 5.0 mi North - - N/A   Partly Cloudy
3:55 AM 69.8 °F - 69.8 °F 100% 29.92 in 5.0 mi North - - N/A   Clear
4:15 AM 69.8 °F - 69.8 °F 100% 29.92 in 9.0 mi North - - N/A   Scattered Clouds
4:35 AM 71.6 °F - 71.6 °F 100% 29.92 in 6.0 mi North - - N/A   Overcast
4:55 AM 71.6 °F - 71.6 °F 100% 29.92 in 5.0 mi North - - N/A   Overcast
5:15 AM 71.6 °F - 71.6 °F 100% 29.92 in 4.0 mi North - - N/A   Overcast
5:35 AM 71.6 °F - 71.6 °F 100% 29.92 in 0.5 mi North - - N/A Fog Fog
5:55 AM 71.6 °F - 71.6 °F 100% 29.92 in 0.5 mi North - - N/A Fog Fog
6:15 AM 71.6 °F - 71.6 °F 100% 29.92 in 0.5 mi North - - N/A Fog Fog
6:35 AM 69.8 °F - 69.8 °F 100% 29.93 in 0.2 mi North - - N/A Fog Fog
6:55 AM 69.8 °F - 69.8 °F 100% 29.93 in 0.2 mi North - - N/A Fog Fog
7:15 AM 69.8 °F - 69.8 °F 100% 29.94 in 0.2 mi North - - N/A Fog Fog
7:35 AM 69.8 °F - 69.8 °F 100% 29.95 in 0.2 mi North - - N/A Fog Fog
7:55 AM 71.6 °F - 71.6 °F 100% 29.96 in 0.2 mi North - - N/A Fog Fog
8:15 AM 71.6 °F - 71.6 °F 100% 29.96 in 0.2 mi North - - N/A Fog Fog
8:35 AM 71.6 °F - 71.6 °F 100% 29.97 in 0.2 mi North - - N/A Fog Fog
8:55 AM 71.6 °F - 71.6 °F 100% 29.97 in 0.2 mi North - - N/A Fog Fog
9:15 AM 71.6 °F - 71.6 °F 100% 29.97 in 0.2 mi North - - N/A Fog Fog
9:35 AM 71.6 °F - 71.6 °F 100% 29.99 in 3.0 mi North - - N/A   Overcast
9:55 AM 71.6 °F - 71.6 °F 100% 29.99 in 2.5 mi North - - N/A   Overcast
10:15 AM 71.6 °F - 71.6 °F 100% 29.99 in 3.0 mi North - - N/A   Overcast
10:35 AM 71.6 °F - 71.6 °F 100% 29.99 in 3.0 mi North - - N/A   Overcast
10:55 AM 73.4 °F - 73.4 °F 100% 29.99 in 5.0 mi North - - N/A   Overcast
11:15 AM 73.4 °F - 73.4 °F 100% 29.99 in 5.0 mi North - - N/A   Overcast
11:35 AM 73.4 °F - 73.4 °F 100% 29.99 in 5.0 mi North - - N/A   Overcast
11:55 AM 73.4 °F - 73.4 °F 100% 29.99 in 7.0 mi North - - N/A   Overcast
12:15 PM 75.2 °F - 71.6 °F 89% 29.98 in 10.0 mi North - - N/A   Overcast
12:35 PM 77.0 °F - 71.6 °F 83% 29.98 in 10.0 mi North - - N/A   Overcast
12:55 PM 78.8 °F - 71.6 °F 78% 29.97 in 10.0 mi North - - N/A   Overcast
1:15 PM 78.8 °F - 71.6 °F 78% 29.96 in 10.0 mi North - - N/A   Mostly Cloudy
1:35 PM 80.6 °F 84.6 °F 71.6 °F 74% 29.96 in 10.0 mi North - - N/A   Partly Cloudy
1:55 PM 82.4 °F 87.2 °F 71.6 °F 70% 29.96 in 10.0 mi North - - N/A   Partly Cloudy
2:15 PM 82.4 °F 87.2 °F 71.6 °F 70% 29.94 in 10.0 mi North - - N/A   Partly Cloudy
2:35 PM 82.4 °F 87.2 °F 71.6 °F 70% 29.93 in 10.0 mi North - - N/A   Clear
2:55 PM 84.2 °F 89.6 °F 71.6 °F 66% 29.92 in 10.0 mi North - - N/A   Clear
3:15 PM 84.2 °F 89.6 °F 71.6 °F 66% 29.91 in 10.0 mi North - - N/A   Clear
3:35 PM 86.0 °F 91.8 °F 71.6 °F 62% 29.91 in 10.0 mi North - - N/A   Clear
3:55 PM 87.8 °F 93.8 °F 71.6 °F 58% 29.91 in 10.0 mi North - - N/A   Partly Cloudy
4:15 PM 86.0 °F 90.4 °F 69.8 °F 58% 29.90 in 10.0 mi North - - N/A   Clear
4:35 PM 87.8 °F 93.8 °F 71.6 °F 58% 29.90 in 10.0 mi North - - N/A   Scattered Clouds
4:55 PM 84.2 °F 89.6 °F 71.6 °F 66% 29.90 in 10.0 mi North - - N/A   Partly Cloudy
5:15 PM 84.2 °F 89.6 °F 71.6 °F 66% 29.89 in 10.0 mi North - - N/A   Clear
5:55 PM 84.2 °F 89.6 °F 71.6 °F 66% 29.88 in 10.0 mi North - - N/A   Clear
6:15 PM 86.0 °F 91.8 °F 71.6 °F 62% 29.88 in 10.0 mi North - - N/A   Scattered Clouds
6:35 PM 86.0 °F 91.8 °F 71.6 °F 62% 29.88 in 10.0 mi North - - N/A   Partly Cloudy
6:55 PM 84.2 °F 89.6 °F 71.6 °F 66% 29.88 in 10.0 mi North - - N/A   Clear
7:15 PM 82.4 °F 88.2 °F 73.4 °F 74% 29.88 in 10.0 mi North - - N/A   Clear
7:35 PM 78.8 °F - 73.4 °F 83% 29.89 in 10.0 mi North - - N/A   Clear
7:55 PM 78.8 °F - 73.4 °F 83% 29.89 in 10.0 mi North - - N/A   Clear
8:15 PM 77.0 °F - 73.4 °F 89% 29.89 in 10.0 mi North - - N/A   Clear
8:35 PM 77.0 °F - 73.4 °F 89% 29.89 in 10.0 mi North - - N/A   Clear
8:55 PM 75.2 °F - 73.4 °F 94% 29.89 in 10.0 mi North - - N/A   Clear
9:15 PM 75.2 °F - 73.4 °F 94% 29.89 in 10.0 mi North - - N/A   Clear
9:35 PM 73.4 °F - 73.4 °F 100% 29.88 in 10.0 mi North - - N/A   Clear
9:55 PM 73.4 °F - 73.4 °F 100% 29.88 in 10.0 mi North - - N/A   Clear
10:15 PM 73.4 °F - 73.4 °F 100% 29.87 in 10.0 mi North - - N/A   Clear
10:35 PM 73.4 °F - 73.4 °F 100% 29.86 in 10.0 mi North - - N/A   Clear
11:55 PM 73.4 °F - 73.4 °F 100% 29.87 in 7.0 mi North - - N/A   Clear